This demonstration page uses our WeatherBlox Daily Observations layout. Learn more.

Left ArrowRight Arrow

Hourly Observations for July 26, 2018

Temp ( °F °C ) Dew Point ( °F °C ) Humidity (%) Winds ( mph kmh ) Pressure ( in mb ) Visibility ( mi km ) Precip ( " mm )
12:16 am 00:16 Clear 64 18 64 18 100 100 N N/A 30 1016 10 16.0934 N/A
12:36 am 00:36 Clear 63 17 63 17 100 100 N N/A 30 1016 10 16.0934 N/A
12:57 am 00:57 Clear 63 17 63 17 100 100 N N/A 30 1016 10 16.0934 N/A
1:16 am 01:16 Clear 61 16 61 16 100 100 N N/A 30 1016 10 16.0934 N/A
1:37 am 01:37 Clear 63 17 63 17 100 100 N N/A 29.97 1015 10 16.0934 N/A
1:57 am 01:57 Clear 61 16 61 16 100 100 N N/A 29.97 1015 10 16.0934 N/A
2:16 am 02:16 Clear 61 16 61 16 100 100 N N/A 29.97 1015 10 16.0934 N/A
2:37 am 02:37 Clear 61 16 61 16 100 100 N N/A 29.97 1015 10 16.0934 N/A
2:56 am 02:56 Clear 61 16 61 16 100 100 N N/A 29.97 1015 10 16.0934 N/A
3:16 am 03:16 Clear 61 16 61 16 100 100 N N/A 30 1016 10 16.0934 N/A
3:37 am 03:37 Clear 59 15 59 15 100 100 N N/A 29.97 1015 10 16.0934 N/A
3:56 am 03:56 Clear 61 16 61 16 100 100 N N/A 29.97 1015 10 16.0934 N/A
4:17 am 04:17 Clear 59 15 59 15 100 100 N N/A 29.97 1015 10 16.0934 N/A
4:36 am 04:36 Clear 59 15 59 15 100 100 N N/A 29.97 1015 10 16.0934 N/A
4:56 am 04:56 Clear 59 15 59 15 100 100 N N/A 29.97 1015 10 16.0934 N/A
5:17 am 05:17 Clear 59 15 59 15 100 100 N N/A 29.97 1015 10 16.0934 N/A
5:36 am 05:36 Clear 59 15 59 15 100 100 N N/A 29.97 1015 10 16.0934 N/A
5:57 am 05:57 Clear 59 15 59 15 100 100 N N/A 29.97 1015 10 16.0934 N/A
6:16 am 06:16 Clear 59 15 59 15 100 100 N N/A 29.97 1015 10 16.0934 N/A
6:37 am 06:37 Clear 59 15 59 15 100 100 S 3 6 29.97 1015 10 16.0934 N/A
6:56 am 06:56 Sunny 61 16 61 16 100 100 SSW 3 6 29.97 1015 10 16.0934 N/A
7:16 am 07:16 Sunny 61 16 61 16 100 100 SW 3 6 29.97 1015 10 16.0934 N/A
7:37 am 07:37 Sunny 63 17 63 17 100 100 N N/A 29.97 1015 10 16.0934 N/A
7:56 am 07:56 Sunny 66 19 66 19 100 100 N N/A 29.97 1015 10 16.0934 N/A
8:17 am 08:17 Sunny 66 19 66 19 100 100 N N/A 29.97 1015 10 16.0934 N/A
8:36 am 08:36 Sunny 68 20 68 20 100 100 SW 6 9 29.97 1015 10 16.0934 N/A
8:56 am 08:56 Sunny 70 21 68 20 94 94 WSW 6 9 29.94 1014 10 16.0934 N/A
9:17 am 09:17 Sunny 73 23 70 21 89 89 WSW 5 7 29.94 1014 10 16.0934 N/A
9:36 am 09:36 Sunny 73 23 70 21 89 89 SW 7 11 29.94 1014 10 16.0934 N/A
9:57 am 09:57 Sunny 77 25 70 21 79 79 WSW 6 9 29.94 1014 10 16.0934 N/A
10:16 am 10:16 Sunny 75 24 70 21 83 83 WSW 5 7 29.94 1014 10 16.0934 N/A
10:36 am 10:36 Sunny 77 25 68 20 74 74 WSW 9 15 29.94 1014 10 16.0934 N/A
10:57 am 10:57 Sunny 77 25 70 21 79 79 WSW 8 13 29.94 1014 10 16.0934 N/A
11:16 am 11:16 Sunny 79 26 70 21 74 74 W 9 15 29.94 1014 10 16.0934 N/A
11:37 am 11:37 Sunny 81 27 70 21 70 70 W 10 17 29.94 1014 10 16.0934 N/A
11:56 am 11:56 Sunny 81 27 70 21 70 70 WSW 8 13 29.94 1014 10 16.0934 N/A
12:17 pm 12:17 Partly Cloudy 81 27 70 21 70 70 WSW 10 17 29.94 1014 10 16.0934 N/A
12:36 pm 12:36 Sunny 82 28 70 21 66 66 W 14 22 29.94 1014 10 16.0934 N/A
12:56 pm 12:56 Sunny 82 28 70 21 66 66 W 12 19 29.94 1014 10 16.0934 N/A
1:17 pm 13:17 Sunny 84 29 70 21 62 62 W 10 17 29.94 1014 10 16.0934 N/A
1:36 pm 13:36 Partly Cloudy 82 28 70 21 66 66 W 14 22 29.94 1014 10 16.0934 N/A
1:57 pm 13:57 Mostly Cloudy 82 28 70 21 66 66 WNW 16 26 29.94 1014 10 16.0934 N/A
2:16 pm 14:16 Mostly Cloudy 82 28 70 21 66 66 W 14 22 29.94 1014 10 16.0934 N/A
2:37 pm 14:37 Partly Cloudy 82 28 72 22 70 70 W 12 19 29.94 1014 10 16.0934 N/A
2:56 pm 14:56 Partly Cloudy 82 28 72 22 70 70 WSW 13 20 29.94 1014 10 16.0934 N/A
3:17 pm 15:17 Mostly Cloudy 82 28 73 23 74 74 SW 10 17 29.91 1013 10 16.0934 N/A
3:36 pm 15:36 Mostly Cloudy 82 28 72 22 70 70 WSW 14 22 29.91 1013 10 16.0934 N/A
3:56 pm 15:56 Mostly Cloudy 81 27 70 21 70 70 W 12 19 29.91 1013 10 16.0934 N/A
4:17 pm 16:17 Mostly Cloudy 81 27 70 21 70 70 SW 10 17 29.91 1013 10 16.0934 N/A
4:36 pm 16:36 Cloudy 81 27 72 22 74 74 SW 12 19 29.91 1013 10 16.0934 N/A
4:56 pm 16:56 Cloudy 81 27 72 22 74 74 WSW 9 15 29.91 1013 10 16.0934 N/A
5:17 pm 17:17 Mostly Cloudy 81 27 72 22 74 74 WSW 9 15 29.91 1013 10 16.0934 N/A
5:36 pm 17:36 Cloudy 79 26 72 22 79 79 SW 9 15 29.91 1013 10 16.0934 N/A
5:56 pm 17:56 Mostly Cloudy 81 27 72 22 74 74 SW 8 13 29.91 1013 10 16.0934 N/A
6:17 pm 18:17 Mostly Cloudy 79 26 70 21 74 74 SW 13 20 29.91 1013 10 16.0934 N/A
6:36 pm 18:36 Mostly Cloudy 79 26 70 21 74 74 W 13 20 29.91 1013 10 16.0934 N/A
6:57 pm 18:57 Mostly Cloudy 77 25 72 22 83 83 W 17 28 29.91 1013 7 11.26538 N/A
7:16 pm 19:16 Mostly Cloudy 75 24 72 22 89 89 W 14 22 29.91 1013 10 16.0934 N/A
7:36 pm 19:36 Partly Cloudy 75 24 73 23 94 94 WNW 10 17 29.91 1013 10 16.0934 N/A
7:57 pm 19:57 Partly Cloudy 75 24 72 22 89 89 WNW 9 15 29.94 1014 10 16.0934 N/A
8:16 pm 20:16 Partly Cloudy 75 24 70 21 83 83 WNW 12 19 29.94 1014 10 16.0934 N/A
8:37 pm 20:37 Partly Cloudy 73 23 63 17 69 69 WNW 14 22 29.94 1014 10 16.0934 N/A
8:56 pm 20:56 Sunny 73 23 64 18 74 74 WNW 8 13 29.94 1014 10 16.0934 N/A
9:16 pm 21:16 Partly Cloudy 72 22 64 18 78 78 WNW 10 17 29.94 1014 10 16.0934 N/A
9:37 pm 21:37 Partly Cloudy 72 22 64 18 78 78 WNW 7 11 29.97 1015 10 16.0934 N/A
9:56 pm 21:56 Clear 70 21 64 18 83 83 WNW 6 9 29.97 1015 10 16.0934 N/A
10:17 pm 22:17 Clear 70 21 64 18 83 83 NW 6 9 29.97 1015 10 16.0934 N/A
10:36 pm 22:36 Clear 68 20 64 18 88 88 WNW 5 7 30 1016 10 16.0934 N/A
10:57 pm 22:57 Clear 66 19 64 18 94 94 W 5 7 30 1016 10 16.0934 N/A
11:16 pm 23:16 Clear 64 18 64 18 100 100 WNW 6 9 30 1016 10 16.0934 N/A
11:37 pm 23:37 Clear 68 20 64 18 88 88 WNW 8 13 30 1016 10 16.0934 N/A
11:57 pm 23:57 Clear 66 19 64 18 94 94 WNW 8 13 30 1016 10 16.0934 N/A

Powered by AerisWeather